Weather History for Sussex, NJ

Change the Weather History Date:

Saturday, July 20, 2013

  Actual Average Record
Temperature  
Mean Temperature 81 °F -  
Max Temperature 90 °F 85 °F 97 °F (1991)
Min Temperature 73 °F 61 °F 44 °F (1965)
Cooling Degree Days 16    
Growing Degree Days 31 (Base 50)    
Moisture  
Dew Point 70 °F    
Average Humidity 72    
Maximum Humidity 93    
Minimum Humidity 51    
Precipitation  
Precipitation 0.00 in - - ()
Sea Level Pressure  
Sea Level Pressure 29.79 in    
Wind  
Wind Speed 5 mph (SW)    
Max Wind Speed 12 mph    
Max Gust Speed 17 mph    
Visibility 8 miles    
Events Thunderstorm    
Averages and records for this station are not official NWS values.
T = Trace of Precipitation, MM = Missing Value Source: NWS Daily Summary

Daily Weather History Graph

Daily Weather History Graph

Search for Another Location

Airport:

Trip Planner

Search our weather history database for the weather conditions in past years. The results will help you decide how hot, cold, wet, or windy it might be!

Date:

Astronomy

Jul. 20, 2013 Rise Set
Actual Time 5:43 AM EDT 8:26 PM EDT
Civil Twilight 5:10 AM EDT 8:58 PM EDT
Nautical Twilight 4:30 AM EDT 9:38 PM EDT
Astronomical Twilight 3:44 AM EDT 10:24 PM EDT
Moon 6:27 PM EDT (7/20) 3:20 AM EDT (7/20)
Length of Visible Light 15h 47m
Length of Day
14h 43m
Waxing Gibbous, 93% of the Moon is Illuminated
Jul 20
Waxing Gibbous
Jul 22
Full
Jul 29
Last Quarter
Aug 6
New
Aug 14
First Quarter

Hourly Weather History & Observations

Time (EDT) Temp. Heat Index Dew Point Humidity Pressure Visibility Wind Dir Wind Speed Gust Speed Precip Events Conditions
12:53 AM 79.0 °F - 72.0 °F 79% 29.83 in 7.0 mi SW 4.6 mph - N/A   Clear
1:53 AM 78.1 °F - 70.0 °F 76% 29.82 in 8.0 mi SW 5.8 mph - N/A   Clear
2:53 AM 75.9 °F - 69.1 °F 79% 29.80 in 8.0 mi SSW 5.8 mph - N/A   Clear
3:53 AM 75.0 °F - 70.0 °F 84% 29.78 in 7.0 mi Calm Calm - N/A   Partly Cloudy
4:53 AM 73.9 °F - 70.0 °F 87% 29.78 in 6.0 mi SW 4.6 mph - N/A   Clear
5:53 AM 73.9 °F - 70.0 °F 87% 29.79 in 5.0 mi SW 4.6 mph - N/A   Clear
6:53 AM 73.9 °F - 70.0 °F 87% 29.81 in 5.0 mi SSW 6.9 mph - N/A   Clear
7:53 AM 75.0 °F - 70.0 °F 84% 29.82 in 5.0 mi SW 4.6 mph - N/A   Haze
8:53 AM 78.1 °F - 71.1 °F 79% 29.81 in 7.0 mi SW 5.8 mph - N/A   Clear
9:53 AM 82.0 °F 86.7 °F 72.0 °F 71% 29.80 in 7.0 mi SSW 5.8 mph - N/A   Clear
10:53 AM 84.0 °F 89.0 °F 71.1 °F 65% 29.78 in 9.0 mi SW 5.8 mph - N/A   Clear
11:53 AM 86.0 °F 92.2 °F 72.0 °F 63% 29.77 in 9.0 mi SSW 11.5 mph 17.3 mph N/A   Clear
12:53 PM 87.1 °F 94.5 °F 73.0 °F 63% 29.76 in 9.0 mi SW 5.8 mph 16.1 mph N/A   Partly Cloudy
1:53 PM 88.0 °F 95.6 °F 73.0 °F 61% 29.75 in 9.0 mi Variable 6.9 mph - N/A   Partly Cloudy
2:53 PM 88.0 °F 93.8 °F 71.1 °F 57% 29.75 in 10.0 mi SW 6.9 mph 16.1 mph N/A   Mostly Cloudy
3:53 PM 89.1 °F 95.0 °F 71.1 °F 55% 29.75 in 10.0 mi WSW 9.2 mph - N/A   Scattered Clouds
4:28 PM 86.0 °F 90.4 °F 69.8 °F 58% 29.76 in 9.0 mi Variable 6.9 mph - N/A Thunderstorm Scattered Clouds
4:53 PM 82.9 °F 84.0 °F 63.0 °F 51% 29.76 in 10.0 mi SW 5.8 mph - 0.00 in Thunderstorm Scattered Clouds
5:07 PM 82.4 °F 83.9 °F 64.4 °F 54% 29.77 in 10.0 mi Variable 5.8 mph - N/A   Partly Cloudy
5:53 PM 84.9 °F 88.8 °F 69.1 °F 59% 29.76 in 10.0 mi SSW 5.8 mph - N/A   Clear
6:53 PM 82.0 °F 85.5 °F 69.1 °F 65% 29.76 in 10.0 mi Calm Calm - N/A   Clear
7:53 PM 80.1 °F 83.2 °F 70.0 °F 71% 29.79 in 10.0 mi Calm Calm - N/A   Partly Cloudy
8:53 PM 77.0 °F - 71.1 °F 82% 29.81 in 10.0 mi Calm Calm - N/A   Scattered Clouds
9:53 PM 75.0 °F - 71.1 °F 87% 29.83 in 10.0 mi Calm Calm - N/A   Mostly Cloudy
10:53 PM 75.0 °F - 71.1 °F 87% 29.84 in 10.0 mi Calm Calm - N/A   Overcast
11:53 PM 73.0 °F - 71.1 °F 93% 29.86 in 10.0 mi Calm Calm - N/A   Clear